[[{"header":{"parameterUnit":"m.s-1","parameterCategory":1,"la1":30.2991,"la2":30.254,"lo1":-89.0895,"lo2":-89.0444,"dy":0.0017,"dx":0.0017,"nx":28,"ny":28,"refTime":"2025-01-26T03:00:00:Z","depth":0,"parameterNumber":2,"parameterNumberName":"U-component_of_WINDS"},"data":[0,0,0,0,0,0,0,0,0,0,0,0,0,0,0,0,0,0,0,0,0,0,0,0,0,0,0,0,0,0,0,0,0,0,0,0,0,0,0,0,0,0,0,0,0,0,0,0,0,0,0,0,0,0,0,0,0,0,-0.3149,-0.3151,0,-0.3283,-0.3285,-0.3286,-0.3362,-0.3362,-0.3362,-0.3362,-0.35,-0.3504,-0.3507,0,0,0,0,0,0,0,0,0,0,0,0,0,-0.2958,-0.2961,-0.3149,-0.3151,-0.3153,-0.3283,-0.3285,-0.3287,-0.3362,-0.3362,-0.3362,-0.3362,-0.3499,-0.3503,-0.3507,0,0,0,0,0,0,0,0,0,0,0,0,0,-0.3062,-0.2962,-0.3149,-0.3206,-0.3212,-0.3283,-0.3285,-0.3287,-0.3362,-0.3362,-0.3362,-0.3363,-0.3498,-0.3503,-0.3508,-0.3533,0,0,-0.3524,-0.3526,0,0,0,0,0,0,0,0,-0.3056,-0.3069,-0.3196,-0.3202,-0.3209,-0.3306,-0.3268,-0.337,-0.3361,-0.3305,-0.3362,-0.3363,-0.3435,-0.3446,-0.347,-0.3539,-0.3545,-0.3524,-0.3527,-0.353,-0.3531,0,0,0,0,0,0,0,-0.3048,-0.3063,-0.3202,-0.3197,-0.3206,-0.3224,-0.324,-0.3288,-0.3367,-0.331,-0.3316,-0.333,-0.3439,-0.3465,-0.3474,-0.3547,-0.3524,-0.3529,-0.3532,-0.3534,-0.3642,-0.3642,0,0,0,0,0,0,-0.3032,-0.3057,-0.3198,-0.3206,-0.3132,-0.3228,-0.3244,-0.3275,-0.3366,-0.3381,-0.333,-0.3333,-0.3456,-0.3468,-0.3479,-0.3513,-0.353,-0.3534,-0.3537,-0.3643,-0.3642,-0.3642,0,0,0,0,0,0,-0.3028,-0.3044,-0.3193,-0.3133,-0.3154,-0.3231,-0.3264,-0.3277,-0.3303,-0.3381,-0.3396,-0.3342,-0.3457,-0.3472,-0.3519,-0.3519,-0.3537,-0.3542,-0.3643,-0.3643,-0.3642,-0.3582,0,0,0,0,0,0,-0.3022,-0.3042,-0.3052,-0.3133,-0.3156,-0.323,-0.3264,-0.328,-0.3312,-0.3317,-0.3396,-0.341,-0.3458,-0.351,-0.3524,-0.3527,-0.3546,-0.3643,-0.3643,-0.3642,-0.3585,-0.358,-0.3576,0,0,0,0,0,-0.3015,-0.3031,-0.3052,-0.3069,-0.3171,-0.323,-0.3243,-0.3298,-0.3311,-0.3322,-0.3372,-0.3407,-0.3517,-0.3515,-0.353,-0.3535,-0.3643,-0.3643,-0.3642,-0.3587,-0.3581,-0.3576,0,0,0,0,0,0,-0.2949,-0.3042,-0.3067,-0.311,-0.3161,-0.3242,-0.3258,-0.3291,-0.334,-0.3343,-0.341,-0.3427,-0.3467,-0.3506,-0.3502,-0.3563,-0.3584,-0.3587,-0.3536,-0.3532,-0.3527,-0.3517,-0.355,0,0,0,0,0,-0.2939,-0.2979,-0.3058,-0.3088,-0.3112,-0.318,-0.3208,-0.3246,-0.3302,-0.3324,-0.3378,-0.3431,-0.3478,-0.3507,-0.3554,-0.3591,-0.3609,-0.3602,-0.3597,-0.3593,-0.3595,-0.3616,-0.3613,-0.364,-0.364,-0.364,0,0,-0.2919,-0.2975,-0.2997,-0.3076,-0.312,-0.316,-0.3198,-0.3239,-0.3269,-0.3331,-0.3378,-0.3419,-0.3483,-0.3524,-0.3545,-0.3557,-0.3591,-0.3593,-0.3589,-0.3593,-0.3615,-0.3612,-0.361,-0.364,-0.364,-0.364,0,0,-0.2904,-0.295,-0.2979,-0.3023,-0.3089,-0.3134,-0.314,-0.3217,-0.3246,-0.3294,-0.3341,-0.3378,-0.3457,-0.35,-0.3532,-0.3531,-0.3565,-0.3545,-0.3522,-0.3542,-0.354,-0.3538,-0.3537,-0.3536,-0.3546,-0.3546,-0.3546,0,-0.2871,-0.2932,-0.299,-0.3028,-0.3061,-0.3118,-0.3148,-0.3187,-0.3265,-0.3287,-0.33,-0.3399,-0.3446,-0.3498,-0.3498,-0.3522,-0.3532,-0.3536,-0.3536,-0.3535,-0.3534,-0.3533,-0.3533,-0.3543,-0.3543,-0.3544,-0.3544,0,-0.2888,-0.293,-0.2946,-0.3019,-0.3054,-0.3087,-0.315,-0.3178,-0.3213,-0.3256,-0.3304,-0.3363,-0.3422,-0.3437,-0.3472,-0.3494,-0.3499,-0.3523,-0.3545,-0.3527,-0.3528,-0.3528,-0.3539,-0.354,-0.3541,-0.3541,0,0,-0.2835,-0.2939,-0.2944,-0.2977,-0.3054,-0.3087,-0.3123,-0.318,-0.3203,-0.3255,-0.3286,-0.3351,-0.3373,-0.3409,-0.3449,-0.3467,-0.3461,-0.3489,-0.3491,-0.348,-0.3487,-0.3468,-0.3467,-0.3484,-0.3484,-0.3484,-0.3481,0,-0.283,-0.2896,-0.2949,-0.2995,-0.3033,-0.3088,-0.3119,-0.3169,-0.321,-0.3249,-0.3295,-0.3339,-0.3366,-0.3388,-0.3408,-0.3457,-0.3463,-0.3458,-0.3513,-0.3514,-0.3494,-0.3467,-0.3447,-0.3442,-0.3482,-0.3482,-0.3482,0,-0.2833,-0.2881,-0.2931,-0.3002,-0.302,-0.3047,-0.3103,-0.314,-0.3198,-0.3227,-0.3266,-0.3308,-0.3347,-0.3366,-0.3421,-0.3417,-0.3442,-0.347,-0.3471,-0.3477,-0.3496,-0.3472,-0.3442,-0.344,-0.3483,-0.3483,-0.3483,0,-0.2787,-0.2865,-0.2905,-0.2932,-0.3016,-0.3034,-0.307,-0.3128,-0.3159,-0.3208,-0.3229,-0.3282,-0.3311,-0.3352,-0.3406,-0.3415,-0.3455,-0.3478,-0.348,-0.3478,-0.3485,-0.3484,-0.3457,-0.3503,-0.3503,-0.3503,-0.3503,0,-0.2775,-0.2803,-0.2885,-0.2909,-0.2942,-0.3002,-0.3033,-0.3074,-0.3125,-0.3158,-0.3209,-0.3239,-0.3309,-0.3348,-0.3391,-0.3429,-0.3442,-0.3466,-0.3477,-0.3461,-0.3458,-0.3478,-0.3479,-0.3503,-0.3503,-0.3503,-0.3503,0,-0.273,-0.2786,-0.2833,-0.2908,-0.2928,-0.2949,-0.3014,-0.3039,-0.3083,-0.3124,-0.3137,-0.3206,-0.3253,-0.3311,-0.3378,-0.3407,-0.3441,-0.3458,-0.3421,-0.3427,-0.3424,-0.3423,-0.3409,-0.341,-0.3455,-0.3455,-0.3454,0,-0.2718,-0.2741,-0.2818,-0.2844,-0.2878,-0.2918,-0.295,-0.301,-0.304,-0.3107,-0.3124,-0.3175,-0.3219,-0.3293,-0.3349,-0.34,-0.3418,-0.341,-0.3426,-0.3409,-0.3416,-0.3414,-0.3416,-0.3405,-0.3404,-0.3403,-0.3403,0,-0.2691,-0.2717,-0.276,-0.2812,-0.2847,-0.2892,-0.2938,-0.2956,-0.3026,-0.3057,-0.3106,-0.314,-0.3207,-0.3257,-0.3315,-0.3353,-0.3389,-0.3397,-0.34,-0.3383,-0.336,-0.3371,-0.3408,-0.3397,-0.3398,-0.3398,-0.3398,-0.3399,-0.2662,-0.2683,-0.2741,-0.2786,-0.2827,-0.2869,-0.2896,-0.2943,-0.2984,-0.3043,-0.3076,-0.3124,-0.318,-0.3262,-0.3298,-0.3336,-0.3349,-0.3353,-0.3354,-0.3354,-0.3348,-0.3355,-0.3347,-0.3347,-0.3347,-0.3347,-0.3348,0,-0.2636,-0.2675,-0.2716,-0.2779,-0.2814,-0.2845,-0.2897,-0.2925,-0.2966,-0.3015,-0.3057,-0.3113,-0.3161,-0.3221,-0.3273,-0.3292,-0.331,-0.3303,-0.3302,-0.331,-0.3334,-0.3326,-0.3288,-0.3288,-0.3288,-0.3288,-0.3288,-0.3288,-0.2626,-0.2664,-0.2697,-0.2756,-0.2796,-0.2842,-0.2869,-0.2907,-0.2947,-0.3006,-0.3046,-0.3084,-0.3138,-0.3194,-0.324,-0.3256,-0.3273,-0.3261,-0.3282,-0.3303,-0.3308,-0.3313,-0.3306,-0.3264,-0.3264,-0.3254,-0.3254,-0.3254]},{"header":{"parameterUnit":"m.s-1","parameterCategory":1,"la1":30.2991,"la2":30.254,"lo1":-89.0895,"lo2":-89.0444,"dy":0.0017,"dx":0.0017,"nx":28,"ny":28,"refTime":"2025-01-26T03:00:00:Z","depth":0,"parameterNumber":3,"parameterNumberName":"V-component_of_WINDS"},"data":[0,0,0,0,0,0,0,0,0,0,0,0,0,0,0,0,0,0,0,0,0,0,0,0,0,0,0,0,0,0,0,0,0,0,0,0,0,0,0,0,0,0,0,0,0,0,0,0,0,0,0,0,0,0,0,0,0,0,2.3324,2.3325,0,2.3364,2.3364,2.3364,2.3368,2.3367,2.3367,2.3367,2.3404,2.3406,2.3407,0,0,0,0,0,0,0,0,0,0,0,0,0,2.3248,2.3249,2.3324,2.3325,2.3325,2.3363,2.3364,2.3365,2.3368,2.3367,2.3367,2.3366,2.3404,2.3406,2.3407,0,0,0,0,0,0,0,0,0,0,0,0,0,2.3283,2.3249,2.3324,2.3331,2.3333,2.3363,2.3364,2.3365,2.3368,2.3367,2.3367,2.3366,2.3403,2.3405,2.3407,2.3433,0,0,2.3414,2.3415,0,0,0,0,0,0,0,0,2.3281,2.3286,2.333,2.3331,2.3332,2.336,2.3351,2.3387,2.3368,2.3354,2.3367,2.3366,2.339,2.3393,2.3402,2.3435,2.3436,2.3414,2.3415,2.3416,2.3417,0,0,0,0,0,0,0,2.3279,2.3284,2.334,2.333,2.3332,2.3331,2.3336,2.3358,2.3375,2.3356,2.3356,2.3361,2.339,2.34,2.3403,2.3437,2.3414,2.3416,2.3417,2.3418,2.349,2.349,0,0,0,0,0,0,2.3275,2.3282,2.3338,2.3341,2.3305,2.3333,2.3338,2.3352,2.3375,2.3378,2.3361,2.3361,2.3397,2.34,2.3404,2.3434,2.3416,2.3418,2.3419,2.3489,2.349,2.3491,0,0,0,0,0,0,2.3274,2.328,2.3337,2.3312,2.3319,2.3335,2.3351,2.3353,2.3362,2.3379,2.3382,2.3368,2.3396,2.3401,2.3425,2.3435,2.3419,2.3421,2.3488,2.3489,2.349,2.3495,0,0,0,0,0,0,2.3271,2.328,2.3291,2.3312,2.332,2.3359,2.3351,2.3354,2.3366,2.3366,2.3386,2.3389,2.3396,2.3422,2.3427,2.3438,2.3423,2.3487,2.3489,2.349,2.3494,2.3496,2.3498,0,0,0,0,0,2.3269,2.329,2.3291,2.3298,2.3334,2.3359,2.3364,2.3373,2.3367,2.3377,2.3388,2.3388,2.3433,2.3425,2.343,2.3442,2.3487,2.3488,2.349,2.3493,2.3496,2.3498,0,0,0,0,0,0,2.327,2.3293,2.3295,2.3324,2.334,2.336,2.3374,2.3375,2.3392,2.3391,2.34,2.3405,2.3428,2.3437,2.3427,2.3466,2.3459,2.3462,2.346,2.3462,2.3464,2.3461,2.3424,0,0,0,0,0,2.3273,2.3293,2.3312,2.3336,2.3344,2.3357,2.3368,2.3373,2.339,2.3396,2.3408,2.3423,2.344,2.3452,2.3469,2.3495,2.3499,2.3505,2.3507,2.3509,2.3511,2.3524,2.3527,2.3495,2.3495,2.3495,0,0,2.3281,2.3297,2.3308,2.3336,2.3349,2.3368,2.3363,2.3383,2.3396,2.3399,2.3423,2.3432,2.3449,2.3473,2.3485,2.3482,2.352,2.3511,2.3512,2.3513,2.3526,2.3528,2.3531,2.3496,2.3496,2.3496,0,0,2.3305,2.3319,2.334,2.3352,2.3371,2.338,2.3385,2.3404,2.3411,2.3434,2.3436,2.3451,2.3482,2.3493,2.3503,2.3528,2.3528,2.3533,2.3543,2.3555,2.3558,2.356,2.3568,2.3571,2.3535,2.3535,2.3535,0,2.3312,2.3341,2.335,2.337,2.3381,2.3385,2.3405,2.3416,2.3439,2.3447,2.3443,2.3479,2.3491,2.3518,2.3524,2.3532,2.3536,2.3531,2.3557,2.3559,2.3561,2.3569,2.3572,2.3536,2.3536,2.3535,2.3535,0,2.3348,2.3368,2.3382,2.3405,2.3418,2.3438,2.3448,2.346,2.3463,2.3471,2.3494,2.3508,2.3527,2.3534,2.3537,2.356,2.3558,2.3555,2.3548,2.3564,2.3572,2.3575,2.3536,2.3536,2.3536,2.3536,0,0,2.3375,2.3401,2.3406,2.3416,2.3436,2.3451,2.3469,2.3489,2.3498,2.3513,2.3528,2.3553,2.355,2.3561,2.3565,2.3576,2.3594,2.3572,2.3573,2.3575,2.3618,2.362,2.3623,2.3594,2.3594,2.3595,2.3617,0,2.3401,2.3436,2.3443,2.3472,2.349,2.3492,2.3508,2.3521,2.3528,2.3543,2.3551,2.3568,2.3563,2.357,2.3581,2.3589,2.3602,2.3588,2.3607,2.3607,2.3603,2.3627,2.363,2.365,2.362,2.362,2.3621,0,2.3436,2.3452,2.3483,2.3499,2.3507,2.3521,2.3538,2.3552,2.3567,2.3571,2.3582,2.3585,2.3603,2.3595,2.3618,2.3608,2.3616,2.3621,2.3622,2.3624,2.3615,2.363,2.3657,2.3659,2.3625,2.3625,2.3625,0,2.3451,2.348,2.3503,2.3511,2.353,2.354,2.3548,2.3562,2.3572,2.3587,2.3593,2.3609,2.3618,2.3629,2.3635,2.3629,2.3658,2.3651,2.3662,2.3661,2.3668,2.3668,2.3696,2.3673,2.3673,2.3673,2.3673,0,2.3479,2.3498,2.351,2.3523,2.3543,2.3551,2.357,2.3578,2.359,2.3604,2.3606,2.3619,2.3627,2.364,2.3645,2.3663,2.3667,2.367,2.3671,2.367,2.367,2.3676,2.3674,2.3674,2.3674,2.3674,2.3674,0,2.35,2.3509,2.3533,2.3549,2.3553,2.3568,2.3581,2.3593,2.36,2.3617,2.3622,2.3632,2.3648,2.3655,2.3674,2.3677,2.3698,2.3698,2.3694,2.3694,2.3704,2.3703,2.3737,2.3742,2.3716,2.3716,2.3717,0,2.3517,2.3532,2.3549,2.3559,2.3567,2.3583,2.3593,2.36,2.361,2.3626,2.3636,2.3652,2.3665,2.369,2.3698,2.3713,2.3713,2.3724,2.3715,2.3713,2.3713,2.3712,2.3713,2.3726,2.3726,2.3726,2.3726,0,2.3546,2.355,2.3565,2.3581,2.3593,2.3606,2.3618,2.3626,2.3634,2.3645,2.3662,2.3672,2.3691,2.3706,2.3721,2.3728,2.3728,2.3729,2.3732,2.3731,2.3728,2.3729,2.3698,2.3728,2.3728,2.3728,2.3728,2.3728,2.3566,2.3578,2.3592,2.3608,2.3618,2.3629,2.3641,2.3649,2.3663,2.3679,2.3682,2.3699,2.371,2.373,2.3737,2.375,2.3747,2.3752,2.3753,2.3754,2.3754,2.3725,2.3752,2.3752,2.3752,2.3752,2.3752,0,2.3595,2.3603,2.3618,2.3635,2.3647,2.3646,2.3659,2.3669,2.3684,2.3695,2.3708,2.3726,2.374,2.3749,2.3763,2.3771,2.3771,2.3774,2.3774,2.3775,2.3756,2.3752,2.3774,2.3774,2.3774,2.3774,2.3774,2.3774,2.3611,2.3631,2.3635,2.366,2.3668,2.3685,2.3692,2.3702,2.371,2.373,2.3742,2.3748,2.3758,2.3772,2.3784,2.3787,2.3791,2.3795,2.3797,2.3779,2.3777,2.3775,2.3771,2.3796,2.3796,2.3814,2.3815,2.3815]}]]